Location: Chapel Hill
(35.9134°N, 79.0560°W)
Time: 09:55:08
(UTC-04:00)

ACS3 Solar Sail - Pass Details

Date: 27 June 2024
Orbit: 992 x 1023 km, 97.4° (Epoch: 11 July)

Event Time Altitude Azimuth Distance (km) Brightness Sun altitude
Exits shadow 23:40:19 25° 225° (SW) 1,889 6.1 -26.3°
Maximum altitude 23:42:46 33° 265° (W) 1,602 6.0 -26.6°
Drops below altitude 10° 23:48:18 10° 328° (NNW) 2,761 8.1 -27.0°
Sets 23:51:04 0° 338° (NNW) 3,713 9.1 -27.2°
